{"data":{"norad_id":62194,"epoch":"2026-05-25T04:27:18.005184Z","epoch_age_seconds":65973,"freshness":"FRESH","line1":"1 62194U 24229C   26145.18562506  .00020228  00000+0  74204-3 0  9995","line2":"2 62194  43.0004 198.4310 0001254 259.7069 100.3642 15.27603140 83445","mean_motion":15.2760314,"eccentricity":0.0001254,"inclination_deg":43.0004,"raan_deg":198.431,"arg_perigee_deg":259.7069,"mean_anomaly_deg":100.3642,"bstar":0.00074204,"rev_number":8344,"period_min":94.26532076911,"perigee_km":482.11942338209,"apogee_km":483.84019147739,"semimajor_km":6861.1168074297,"source":"CELESTRAK","updated_at":"2026-05-25T13:38:19.606034Z"}}